Location: Newark
(13.8117°N, 3.6025°W)
Time: 15:47:19
(UTC+00:00)

Explorer 11/Cluster Stage 4 - Pass Details

Date: 27 August 2019
Orbit: 467 x 1259 km, 28.8° (Epoch: 17 October)

Event Time Altitude Azimuth Distance (km) Brightness Sun altitude
Rises 05:09:19 0° 214° (SW) 3,025 - -13.4°
Exits shadow 05:10:54 - 207° (SSW) 2,513 8.8 -13.1°
Reaches altitude 10° 05:11:50 10° 202° (SSW) 2,235 8.6 -12.9°
Maximum altitude 05:16:20 27° 144° (SE) 1,562 8.3 -11.8°
Drops below altitude 10° 05:21:42 10° 89° (E) 2,714 10.8 -10.5°
Sets 05:25:04 0° 78° (ENE) 3,808 12.5 -9.7°
